GW0655 Weather Reports


time (UTC)temp
F
wind
direction
speed
knots
gust
knots
rain 1hr
in
rain 24hr
in
rain mn
in
humidity
%
barometer
mb
20260904125433 80 249 0.9 1.7 0.00 0.00 0.00 89 1015.8
20260904124932 80 220 0.9 0.9 0.00 0.00 0.00 90 1015.5
20260904124429 80 221 0.9 1.7 0.00 0.00 0.00 90 1015.8
20260904123924 80 242 0.9 0.9 0.00 0.00 0.00 89 1015.8
20260904123424 80 200 0.9 1.7 0.00 0.00 0.00 89 1015.5
20260904122920 80 178 0.9 1.7 0.00 0.00 0.00 89 1015.5
20260904122420 80 239 0.0 0.0 0.00 0.00 0.00 89 1015.5
20260904121914 80 219 0.9 0.9 0.00 0.00 0.00 89 1015.5
20260904121411 80 238 0.9 1.7 0.00 0.00 0.00 89 1015.5
20260904120907 80 224 0.9 0.9 0.00 0.00 0.00 89 1015.5
20260904120403 80 256 0.9 0.9 0.00 0.00 0.00 89 1015.2
20260904115857 80 204 2.6 2.6 0.00 0.00 0.00 89 1015.2
20260904115352 80 239 0.9 0.9 0.00 0.00 0.00 89 1015.2
20260904114847 80 237 0.9 1.7 0.00 0.00 0.00 89 1015.2
20260904114342 80 223 0.9 0.9 0.00 0.00 0.00 88 1015.2
20260904113837 80 227 1.7 1.7 0.00 0.00 0.00 88 1015.2
20260904113336 80 139 2.6 2.6 0.00 0.00 0.00 88 1015.2
20260904112832 80 202 0.9 0.9 0.00 0.00 0.00 88 1015.2
20260904112327 80 130 0.9 1.7 0.00 0.00 0.00 88 1015.2
20260904111822 80 169 3.5 5.2 0.00 0.00 0.00 88 1015.2
20260904111318 80 187 0.9 1.7 0.00 0.00 0.00 87 1015.2
20260904110814 80 181 2.6 4.3 0.00 0.00 0.00 88 1015.2
20260904110313 80 186 2.6 2.6 0.00 0.00 0.00 87 1015.2
20260904105807 80 157 1.7 1.7 0.00 0.00 0.00 87 1015.2
20260904105305 80 186 1.7 1.7 0.00 0.00 0.00 87 1015.2
20260904104757 80 201 1.7 2.6 0.00 0.00 0.00 87 1014.8
20260904104253 80 114 0.9 1.7 0.00 0.00 0.00 87 1014.8
20260904103749 80 139 2.6 4.3 0.00 0.00 0.00 87 1014.8
20260904103243 80 200 0.0 0.0 0.00 0.00 0.00 86 1014.8
20260904102739 80 178 0.9 1.7 0.00 0.00 0.00 86 1015.2
20260904102235 80 205 0.0 0.9 0.00 0.00 0.00 86 1014.8
20260904101731 80 212 0.0 0.9 0.00 0.00 0.00 86 1014.8
20260904101227 80 198 0.0 0.0 0.00 0.00 0.00 85 1014.8
20260904100722 80 245 0.0 0.0 0.00 0.00 0.00 85 1014.8
20260904100219 80 158 1.7 1.7 0.00 0.00 0.00 85 1014.8
20260904095717 80 166 0.9 0.9 0.00 0.00 0.00 85 1014.8
20260904095212 80 162 0.0 0.9 0.00 0.00 0.00 85 1014.5
20260904094707 80 229 0.9 0.9 0.00 0.00 0.00 85 1014.8
20260904094203 80 262 0.9 0.9 0.00 0.00 0.00 85 1014.8
20260904093659 80 222 0.9 1.7 0.00 0.00 0.00 85 1014.5
20260904093158 80 231 0.9 0.9 0.00 0.00 0.00 85 1014.5
20260904092655 81 245 0.0 0.9 0.00 0.00 0.00 85 1014.5
20260904092150 81 245 0.0 0.9 0.00 0.00 0.00 84 1014.5
20260904091647 81 239 0.0 0.0 0.00 0.00 0.00 84 1014.5
20260904091146 81 225 0.9 0.9 0.00 0.00 0.00 84 1014.5
20260904090642 81 196 1.7 1.7 0.00 0.00 0.00 84 1014.8
20260904090137 81 182 1.7 1.7 0.00 0.00 0.00 84 1014.5
20260904085637 81 213 0.9 0.9 0.00 0.00 0.00 84 1014.5
20260904085132 81 234 0.9 0.9 0.00 0.00 0.00 84 1014.5
20260904084627 81 239 0.9 0.9 0.00 0.00 0.00 84 1014.5
20260904084124 81 216 1.7 1.7 0.00 0.00 0.00 84 1014.5
20260904083620 81 237 0.0 0.9 0.00 0.00 0.00 83 1014.5
20260904083115 81 214 0.9 0.9 0.00 0.00 0.00 83 1014.5
20260904082610 81 257 0.0 0.0 0.00 0.00 0.00 83 1014.5
20260904082106 81 236 0.9 0.9 0.00 0.00 0.00 83 1014.5
20260904081601 81 237 1.7 1.7 0.00 0.00 0.00 83 1014.5
20260904081056 81 233 3.5 5.2 0.00 0.00 0.00 83 1014.5
20260904080552 81 201 0.9 0.9 0.00 0.00 0.00 83 1014.5
20260904080048 81 221 1.7 1.7 0.00 0.00 0.00 83 1014.5
20260904075543 82 238 0.9 0.9 0.00 0.00 0.00 82 1014.5
20260904075038 82 198 0.9 0.9 0.00 0.00 0.00 82 1014.5
20260904074537 82 209 0.9 0.9 0.00 0.00 0.00 82 1014.8
20260904074032 82 206 0.9 0.9 0.00 0.00 0.00 82 1014.5
20260904073527 82 213 0.9 1.7 0.00 0.00 0.00 82 1014.5
20260904073023 82 244 0.9 1.7 0.00 0.00 0.00 81 1014.8
20260904072519 82 223 0.9 0.9 0.00 0.00 0.00 81 1014.8
20260904072014 82 185 0.9 1.7 0.00 0.00 0.00 81 1015.2
20260904071509 82 203 3.5 4.3 0.00 0.00 0.00 81 1014.5
20260904071004 82 159 1.7 1.7 0.00 0.00 0.00 81 1014.8
20260904070503 82 183 2.6 2.6 0.00 0.00 0.00 81 1015.2
20260904065957 82 209 1.7 4.3 0.00 0.00 0.00 80 1014.8
20260904065453 82 218 2.6 2.6 0.00 0.00 0.00 80 1014.8
20260904064949 82 211 2.6 4.3 0.00 0.00 0.00 80 1015.2
20260904064445 82 237 0.9 0.9 0.00 0.00 0.00 80 1015.2
20260904063939 82 257 0.9 1.7 0.00 0.00 0.00 80 1015.2
20260904063436 82 223 0.9 0.9 0.00 0.00 0.00 80 1014.8
20260904062930 82 192 0.9 0.9 0.00 0.00 0.00 79 1014.8
20260904062427 82 210 0.9 0.9 0.00 0.00 0.00 79 1014.8
20260904061922 82 108 0.9 1.7 0.00 0.00 0.00 79 1015.2
20260904061419 82 240 1.7 1.7 0.00 0.00 0.00 79 1015.2
20260904060914 82 155 2.6 5.2 0.00 0.00 0.00 79 1014.8
20260904060410 82 233 1.7 1.7 0.00 0.00 0.00 79 1015.2
20260904055905 82 216 1.7 4.3 0.00 0.00 0.00 79 1015.2
20260904055401 82 151 1.7 2.6 0.00 0.00 0.00 79 1014.8
20260904054856 82 132 1.7 1.7 0.00 0.00 0.00 79 1014.8
20260904054352 82 249 2.6 2.6 0.00 0.00 0.00 79 1014.8
20260904053847 82 144 1.7 2.6 0.00 0.00 0.00 79 1015.2
20260904053347 82 198 0.9 1.7 0.00 0.00 0.00 79 1014.8
20260904052843 82 179 1.7 1.7 0.00 0.00 0.00 79 1014.8
20260904052339 82 241 3.5 5.2 0.00 0.00 0.00 79 1014.8
20260904051835 82 223 1.7 1.7 0.00 0.00 0.00 79 1014.8
20260904051331 82 223 2.6 5.2 0.00 0.00 0.00 79 1014.8
20260904050831 82 242 2.6 2.6 0.00 0.00 0.00 79 1014.8
20260904050328 82 225 1.7 1.7 0.00 0.00 0.00 79 1014.8
20260904045822 82 167 2.6 2.6 0.00 0.00 0.00 79 1014.8
20260904045317 82 253 0.0 0.9 0.00 0.00 0.00 79 1015.2
20260904044811 82 216 0.9 1.7 0.00 0.00 0.00 79 1014.8
20260904044308 82 218 1.7 4.3 0.00 0.00 0.00 79 1014.8
20260904043804 82 185 0.9 0.9 0.00 0.00 0.00 79 1014.8
20260904043300 82 146 1.7 2.6 0.00 0.00 0.00 79 1014.8
20260904042755 82 173 0.9 1.7 0.00 0.00 0.00 79 1014.5
20260904042251 82 206 2.6 2.6 0.00 0.00 0.00 79 1014.8
20260904041751 82 149 1.7 1.7 0.00 0.00 0.00 79 1014.8
20260904041247 82 197 1.7 1.7 0.00 0.00 0.00 79 1014.5
20260904040743 82 102 0.9 1.7 0.00 0.00 0.00 79 1014.8
20260904040238 81 149 2.6 2.6 0.00 0.00 0.00 79 1014.8
20260904035734 82 209 1.7 1.7 0.00 0.00 0.00 79 1014.5
20260904035230 82 149 2.6 2.6 0.00 0.00 0.00 78 1014.8
20260904034728 82 199 1.7 2.6 0.00 0.00 0.00 78 1014.8
20260904034224 81 252 1.7 2.6 0.00 0.00 0.00 78 1014.5
20260904033720 82 131 5.2 6.1 0.00 0.00 0.00 78 1014.8
20260904033217 82 147 2.6 2.6 0.00 0.00 0.00 78 1014.8
20260904032713 82 186 4.3 5.2 0.00 0.00 0.00 78 1014.5
20260904032212 82 104 1.7 2.6 0.00 0.00 0.00 78 1014.5
20260904031712 82 147 1.7 1.7 0.00 0.00 0.00 78 1014.5
20260904031207 82 175 2.6 4.3 0.00 0.00 0.00 77 1014.5
20260904030703 82 139 5.2 6.1 0.00 0.00 0.00 77 1014.5
20260904030157 82 169 3.5 6.1 0.00 0.00 0.00 77 1014.5
20260904025654 82 145 2.6 5.2 0.00 0.00 0.00 77 1014.5
20260904025149 82 117 1.7 2.6 0.00 0.00 0.00 76 1014.1
20260904024644 82 157 7.8 8.7 0.00 0.00 0.00 76 1014.1
20260904024140 82 121 2.6 6.1 0.00 0.00 0.00 75 1014.1
20260904023636 82 199 3.5 6.1 0.00 0.00 0.00 75 1014.1
20260904023132 83 120 4.3 6.1 0.00 0.00 0.00 74 1014.5
20260904022631 83 169 0.9 1.7 0.00 0.00 0.00 74 1014.1
20260904022128 83 275 1.7 2.6 0.00 0.00 0.00 73 1014.1
20260904021624 83 139 2.6 2.6 0.00 0.00 0.00 73 1013.8
20260904021119 83 187 3.5 4.3 0.00 0.00 0.00 73 1013.8
20260904020614 83 181 3.5 6.1 0.00 0.00 0.00 72 1013.5
20260904015557 84 208 3.5 5.2 0.00 0.00 0.00 71 1013.5
20260904015055 84 146 3.5 5.2 0.00 0.00 0.00 71 1013.5
20260904014550 84 143 5.2 6.1 0.00 0.00 0.00 70 1013.5
20260904014045 84 150 2.6 4.3 0.00 0.00 0.00 70 1013.1
20260904013542 84 165 5.2 7.8 0.00 0.00 0.00 68 1013.1
20260904013033 84 239 1.7 2.6 0.00 0.00 0.00 68 1012.7
20260904012532 85 101 7.0 8.7 0.00 0.00 0.00 68 1013.1
20260904012026 85 140 5.2 7.0 0.00 0.00 0.00 67 1013.1
20260904011526 85 166 3.5 5.2 0.00 0.00 0.00 67 1013.1
20260904011021 85 48 1.7 2.6 0.00 0.00 0.00 66 1013.1
20260904010518 86 132 1.7 2.6 0.00 0.00 0.00 65 1013.1
20260904010013 86 194 6.1 9.6 0.00 0.00 0.00 64 1013.5
20260904005508 86 173 4.3 5.2 0.00 0.00 0.00 64 1013.1
20260904005003 86 164 4.3 6.1 0.00 0.00 0.00 64 1013.1
20260904004459 86 126 1.7 2.6 0.00 0.00 0.00 64 1013.1
20260904003959 86 139 6.1 7.0 0.00 0.00 0.00 64 1013.1
20260904003455 87 165 0.9 1.7 0.00 0.00 0.00 64 1013.1
20260904002950 87 153 2.6 5.2 0.00 0.00 0.00 64 1013.1
20260904002446 87 182 6.1 7.0 0.00 0.00 0.00 64 1013.1
20260904001945 87 183 6.1 7.0 0.00 0.00 0.00 63 1013.1
20260904001441 87 118 4.3 6.1 0.00 0.00 0.00 63 1013.1
20260904000935 87 171 6.1 7.8 0.00 0.00 0.00 64 1013.1
20260904000435 87 143 4.3 5.2 0.00 0.00 0.00 64 1013.1
20260903235930 88 160 4.3 7.0 0.00 0.00 0.00 63 1013.1
20260903235426 88 177 2.6 5.2 0.00 0.00 0.00 62 1013.1
20260903234926 88 85 7.0 7.8 0.00 0.00 0.00 62 1012.7
20260903234422 89 119 3.5 5.2 0.00 0.00 0.00 62 1012.7
20260903233918 89 148 3.5 6.1 0.00 0.00 0.00 62 1012.7
20260903233413 89 181 4.3 5.2 0.00 0.00 0.00 62 1012.7
20260903232908 89 115 2.6 5.2 0.00 0.00 0.00 62 1012.7
20260903232403 89 121 4.3 7.0 0.00 0.00 0.00 61 1012.7
20260903231902 89 2 2.6 2.6 0.00 0.00 0.00 61 1012.7
20260903231357 89 163 4.3 6.1 0.00 0.00 0.00 62 1012.4
20260903230853 90 146 12.2 14.8 0.00 0.00 0.00 61 1012.7
20260903230348 90 135 0.9 1.7 0.00 0.00 0.00 61 1012.4
20260903225844 90 145 5.2 7.0 0.00 0.00 0.00 62 1012.4
20260903225340 90 153 1.7 2.6 0.00 0.00 0.00 62 1012.4
20260903224836 89 242 4.3 6.1 0.00 0.00 0.00 63 1012.4
20260903224332 90 121 9.6 12.2 0.00 0.00 0.00 63 1012.4
20260903223828 91 137 7.0 9.6 0.00 0.00 0.00 61 1012.4
20260903223326 92 180 7.8 9.6 0.00 0.00 0.00 60 1012.0
20260903222821 94 180 4.3 6.1 0.00 0.00 0.00 56 1012.4
20260903222321 96 133 7.0 11.3 0.00 0.00 0.00 48 1012.0
20260903221815 97 111 5.2 6.1 0.00 0.00 0.00 46 1011.7
20260903221314 96 127 2.6 4.3 0.00 0.00 0.00 47 1011.7
20260903220812 96 92 7.8 12.2 0.00 0.00 0.00 48 1011.7
20260903220307 96 204 8.7 11.3 0.00 0.00 0.00 47 1012.0
20260903215805 96 106 6.1 7.0 0.00 0.00 0.00 47 1011.7
20260903215305 97 124 6.1 8.7 0.00 0.00 0.00 46 1011.7
20260903214759 97 206 1.7 1.7 0.00 0.00 0.00 46 1011.7
20260903214250 97 155 6.1 7.0 0.00 0.00 0.00 46 1012.0
20260903213744 98 77 7.8 9.6 0.00 0.00 0.00 45 1011.7
20260903213240 97 172 3.5 5.2 0.00 0.00 0.00 45 1011.7
20260903212736 97 136 6.1 7.0 0.00 0.00 0.00 45 1012.0
20260903212233 98 59 1.7 2.6 0.00 0.00 0.00 45 1012.0
20260903211731 99 171 4.3 5.2 0.00 0.00 0.00 45 1011.7
20260903211228 99 90 2.6 2.6 0.00 0.00 0.00 44 1012.0
20260903210724 101 138 3.5 6.1 0.00 0.00 0.00 43 1012.0
20260903210219 100 140 4.3 5.2 0.00 0.00 0.00 43 1012.0
20260903205718 101 151 2.6 2.6 0.00 0.00 0.00 43 1012.4
20260903205217 99 302 0.0 0.9 0.00 0.00 0.00 43 1012.0
20260903204713 99 171 2.6 2.6 0.00 0.00 0.00 43 1012.0
20260903204210 99 140 3.5 5.2 0.00 0.00 0.00 44 1012.4
20260903203705 100 37 0.0 0.9 0.00 0.00 0.00 42 1012.4
20260903203200 100 253 0.0 0.9 0.00 0.00 0.00 42 1012.4
20260903202654 99 175 0.9 1.7 0.00 0.00 0.00 44 1012.7
20260903202151 99 156 1.7 1.7 0.00 0.00 0.00 45 1012.7
20260903201649 99 186 2.6 2.6 0.00 0.00 0.00 44 1012.7
20260903201144 100 122 3.5 5.2 0.00 0.00 0.00 44 1012.7
20260903200639 99 181 1.7 2.6 0.00 0.00 0.00 45 1013.1
20260903200134 99 265 2.6 2.6 0.00 0.00 0.00 45 1012.7
20260903195630 99 113 0.9 1.7 0.00 0.00 0.00 45 1013.1
20260903195126 100 207 1.7 1.7 0.00 0.00 0.00 44 1013.1
20260903194621 99 233 1.7 2.6 0.00 0.00 0.00 45 1012.7
20260903194121 100 340 0.9 0.9 0.00 0.00 0.00 44 1013.1
20260903193617 99 170 1.7 1.7 0.00 0.00 0.00 44 1013.1
20260903193112 99 160 1.7 1.7 0.00 0.00 0.00 45 1013.1
20260903192608 100 113 3.5 5.2 0.00 0.00 0.00 44 1013.5
20260903192103 100 246 0.0 0.0 0.00 0.00 0.00 45 1013.5
20260903191559 102 172 1.7 4.3 0.00 0.00 0.00 43 1013.5
20260903191054 101 223 1.7 2.6 0.00 0.00 0.00 44 1013.5
20260903190554 99 276 0.0 0.9 0.00 0.00 0.00 46 1013.5
20260903190053 100 149 2.6 7.0 0.00 0.00 0.00 45 1013.5
20260903185549 98 193 2.6 2.6 0.00 0.00 0.00 47 1013.8
20260903185044 98 152 5.2 7.0 0.00 0.00 0.00 47 1013.8
20260903184540 99 174 1.7 1.7 0.00 0.00 0.00 47 1013.8
20260903184035 98 238 0.0 0.0 0.00 0.00 0.00 47 1014.1
20260903183534 98 179 1.7 2.6 0.00 0.00 0.00 47 1014.1
20260903183030 97 221 3.5 5.2 0.00 0.00 0.00 47 1014.5
20260903182528 98 301 2.6 2.6 0.00 0.00 0.00 48 1014.5
20260903182024 98 171 1.7 1.7 0.00 0.00 0.00 48 1014.5
20260903181518 97 172 0.9 1.7 0.00 0.00 0.00 48 1014.5
20260903181017 97 107 0.0 0.9 0.00 0.00 0.00 48 1014.5
20260903180513 96 192 0.9 0.9 0.00 0.00 0.00 49 1014.5
20260903180012 96 229 1.7 4.3 0.00 0.00 0.00 49 1014.5
20260903175511 96 287 1.7 1.7 0.00 0.00 0.00 49 1014.5
20260903175010 97 264 4.3 7.0 0.00 0.00 0.00 48 1014.8
20260903174506 95 196 2.6 2.6 0.00 0.00 0.00 49 1014.8
20260903174000 96 184 3.5 5.2 0.00 0.00 0.00 49 1014.8
20260903173455 95 202 0.9 1.7 0.00 0.00 0.00 51 1014.8
20260903172951 95 179 1.7 4.3 0.00 0.00 0.00 52 1015.2
20260903172446 94 195 4.3 6.1 0.00 0.00 0.00 53 1014.8
20260903171942 95 233 3.5 5.2 0.00 0.00 0.00 52 1015.2
20260903171437 95 217 4.3 6.1 0.00 0.00 0.00 53 1015.2
20260903170936 95 203 4.3 6.1 0.00 0.00 0.00 53 1014.8
20260903170431 95 166 1.7 2.6 0.00 0.00 0.00 53 1015.2
20260903165930 95 228 7.8 7.8 0.00 0.00 0.00 54 1015.2
20260903165425 93 312 0.9 0.9 0.00 0.00 0.00 55 1015.2
20260903164925 94 234 5.2 7.0 0.00 0.00 0.00 55 1015.2
20260903164419 95 173 2.6 4.3 0.00 0.00 0.00 54 1015.2
20260903163914 92 224 1.7 2.6 0.00 0.00 0.00 58 1015.2
20260903163410 93 241 7.0 9.6 0.00 0.00 0.00 56 1015.2
20260903162906 92 218 4.3 5.2 0.00 0.00 0.00 58 1015.5
20260903162402 91 248 3.5 7.0 0.00 0.00 0.00 58 1015.5
20260903161857 92 261 2.6 6.1 0.00 0.00 0.00 57 1015.2
20260903161352 92 197 7.8 12.2 0.00 0.00 0.00 58 1015.5
20260903160848 92 182 6.1 7.0 0.00 0.00 0.00 58 1015.2
20260903160347 92 236 3.5 5.2 0.00 0.00 0.00 58 1015.2
20260903155846 92 184 3.5 4.3 0.00 0.00 0.00 61 1015.2
20260903155342 91 200 7.0 7.8 0.00 0.00 0.00 60 1015.2
20260903154836 89 182 2.6 4.3 0.00 0.00 0.00 64 1015.2
20260903154333 89 186 2.6 4.3 0.00 0.00 0.00 64 1015.2
20260903153827 88 273 0.9 0.9 0.00 0.00 0.00 66 1015.2
20260903153323 88 256 5.2 6.1 0.00 0.00 0.00 66 1015.2
20260903152820 87 229 7.0 8.7 0.00 0.00 0.00 67 1015.5
20260903152315 88 206 6.1 7.8 0.00 0.00 0.00 68 1015.5
20260903151810 87 186 3.5 5.2 0.00 0.00 0.00 68 1015.2
20260903151306 87 221 4.3 5.2 0.00 0.00 0.00 69 1015.5
20260903150806 87 224 1.7 4.3 0.00 0.00 0.00 68 1015.8
20260903150300 87 246 4.3 5.2 0.00 0.00 0.00 68 1015.5
20260903145755 88 219 7.0 9.6 0.00 0.00 0.00 67 1015.2
20260903145250 88 226 2.6 2.6 0.00 0.00 0.00 66 1015.2
20260903144749 89 212 5.2 7.0 0.00 0.00 0.00 67 1015.2
20260903144245 87 201 6.1 9.6 0.00 0.00 0.00 69 1015.2
20260903143741 86 158 2.6 2.6 0.00 0.00 0.00 71 1015.2
20260903143237 85 276 2.6 2.6 0.00 0.00 0.00 73 1015.2
20260903142732 85 282 3.5 5.2 0.00 0.00 0.00 72 1015.2
20260903142228 86 196 3.5 5.2 0.00 0.00 0.00 73 1015.2
20260903141724 86 232 3.5 5.2 0.00 0.00 0.00 72 1015.2
20260903141219 86 192 2.6 2.6 0.00 0.00 0.00 73 1015.2
20260903140714 86 198 3.5 5.2 0.00 0.00 0.00 73 1015.2
20260903140209 85 212 1.7 2.6 0.00 0.00 0.00 75 1015.2
20260903135705 85 236 7.0 8.7 0.00 0.00 0.00 76 1015.5
20260903135200 85 233 4.3 5.2 0.00 0.00 0.00 75 1015.2
20260903134658 85 240 1.7 1.7 0.00 0.00 0.00 76 1015.2
20260903134155 85 265 4.3 5.2 0.00 0.00 0.00 76 1015.5
20260903133653 84 160 3.5 4.3 0.00 0.00 0.00 78 1015.2
20260903133148 84 207 3.5 4.3 0.00 0.00 0.00 78 1015.5
20260903132648 84 188 2.6 4.3 0.00 0.00 0.00 79 1015.2
20260903132143 83 210 4.3 4.3 0.00 0.00 0.00 80 1015.2
20260903131638 83 175 2.6 2.6 0.00 0.00 0.00 80 1015.5
20260903131136 83 199 2.6 4.3 0.00 0.00 0.00 81 1015.5
20260903130631 82 191 3.5 4.3 0.00 0.00 0.00 82 1015.5
20260903130126 82 194 2.6 2.6 0.00 0.00 0.00 83 1015.5
20260903125624 82 208 0.9 1.7 0.00 0.00 0.00 83 1015.5